This is the latest recevied weather packets stored in our database for station/object N4PWG. If no packets are shown the sender has not sent any weather packets the latest 10 day(s).
| Time | Temp. | Humidity | Pressure | Rain* | Wind** | Luminosity | Snow |
|---|---|---|---|---|---|---|---|
| 1777413489 | 22.78° C | 98% | 1025.6 hPa | 0 mm | - | 2 W/m² | - |
| 1777413185 | 22.78° C | 99% | 1024.6 hPa | 1.78 mm | - | 1 W/m² | - |
| 1777412881 | 22.78° C | 99% | 1023.7 hPa | 1.78 mm | - | 1 W/m² | - |
| 1777412575 | 22.78° C | 99% | 1028.2 hPa | 1.27 mm | - | 1 W/m² | - |
| 1777412272 | 22.78° C | 99% | 1029.8 hPa | 1.27 mm | - | 1 W/m² | - |
| 1777411969 | 22.78° C | 98% | 1030.6 hPa | 0 mm | - | 0 W/m² | - |
| 1777411667 | 23.33° C | 97% | 1029.5 hPa | 1.78 mm | - | 2 W/m² | - |
| 1777411362 | 23.33° C | 95% | 1028.7 hPa | 1.78 mm | - | 1 W/m² | - |
| 1777411062 | 23.89° C | 95% | 1028.7 hPa | 0 mm | - | 1 W/m² | - |
| 1777410757 | 23.89° C | 94% | 1028.2 hPa | 0 mm | - | 3 W/m² | - |
| 1777410450 | 23.89° C | 93% | 1028.3 hPa | 0 mm | - | 4 W/m² | - |
| 1777410149 | 24.44° C | 91% | 1028.8 hPa | 0 mm | - | 5 W/m² | - |
| 1777409844 | 24.44° C | 90% | 1028.5 hPa | 0 mm | - | 5 W/m² | - |
| 1777409541 | 24.44° C | 89% | 1028.8 hPa | 0 mm | - | 8 W/m² | - |
| 1777409236 | 24.44° C | 89% | 1028.2 hPa | 0 mm | - | 10 W/m² | - |
| 1777408932 | 25° C | 88% | 1028.4 hPa | 0 mm | - | 13 W/m² | - |
| 1777408629 | 25° C | 87% | 1028.5 hPa | 0 mm | - | 15 W/m² | - |
| 1777408325 | 25° C | 86% | 1028.6 hPa | 0 mm | - | 18 W/m² | - |
| 1777408024 | 25.56° C | 85% | 1028.4 hPa | 0 mm | - | 16 W/m² | - |
| 1777407721 | 25.56° C | 83% | 1029.3 hPa | 0 mm | - | 18 W/m² | - |
| 1777407417 | 26.11° C | 83% | 1029.3 hPa | 0 mm | - | 25 W/m² | - |
| 1777407112 | 26.11° C | 82% | 1029.5 hPa | 0 mm | - | 37 W/m² | - |
| 1777406808 | 26.11° C | 81% | 1029.3 hPa | 0 mm | - | 81 W/m² | - |
| 1777406503 | 26.11° C | 80% | 1028.8 hPa | 0 mm | - | 102 W/m² | - |
| 1777406198 | 26.11° C | 80% | 1028.8 hPa | 0 mm | - | 124 W/m² | - |
* Rain latest hour (hover to see other rain measurements)
** Current wind speed in m/s (hover to see current wind gust speed)